URMNURMM

Guest
Details From URMN - NALCHIK
To URMM - MINERALNYYE VODY
Flight Number -
Tags generated
Created
Modified
Stats Distance 49 nm / 91 km
Max Altitude 0 ft / 0 m
Waypoints 3
Social Downloads 0
Likes 0
Share VATSIM

Download

Looking for another format? Having issues loading an existing format? Contact us
Advertisement - Login to hide

Notes

Basic altitude profile: - Ascent Rate: 2500ft/min - Ascent Speed: 250kts - Cruise Altitude: 33000ft - Cruise Speed: 420kts - Descent Rate: 1500ft/min - Descent Speed: 250kts Options: - Use NATs: yes - Use PACOTS: yes - Use low airways: yes - Use high airways: yes

Route

URMN MINPU URMM

ID Type Via Altitude Latitude Longitude Leg Dist Tot Dist Heading (true) Name
O URMN APT - 0 ft / 0 m 43.51285˚ 43.63658˚ - 0 nm - NALCHIK
MINPU FIX - 0 ft / 0 m 44.22500˚ 43.08333˚ 49 nm 49 nm 331° / 331° -
O URMM APT - 0 ft / 0 m 44.22507˚ 43.08189˚ 0 nm 49 nm 274° / 274° MINERALNYYE VODY

Altitude Profile

Advertisement - Login to hide

URMN

Details ICAO URMN (NAL)
Name NALCHIK
Region Russia
Timezone Europe/Moscow (UTC+3.0)
Stats Elevation 1,462 ft / 446 m (AMSL)
Location 43.512854° 43.636583°
Runways 1
Magnetic Variation 7.221° E

METAR

URMN 210930Z 07002MPS 9999 FEW///CB BKN/// 25/11 Q1015 R24/010070 NOSIG RMK QFE724

Decode

TAF

Not found

Departure Runways

ID Width Length Bearing (true) Bearing (mag) Surface Threshold Offset Overrun Length
06 138 ft / 42 m 7,256 ft / 2,212 m 62.40° 55.18° Asphalt 0 ft / 0 m 145 ft / 44 m
24 138 ft / 42 m 7,256 ft / 2,212 m 242.42° 235.20° Asphalt 0 ft / 0 m 160 ft / 49 m

URMM

Details ICAO URMM (MRV)
Name MINERALNYYE VODY
Region Russia
Timezone Europe/Moscow (UTC+3.0)
Stats Elevation 1,054 ft / 321 m (AMSL)
Location 44.225073° 43.081891°
Runways 1
Magnetic Variation 7.425° E

METAR

URMM 210930Z 30010MPS 9999 SCT028 22/14 Q1017 R30/090070 TEMPO VRB10G18MPS 3100 -TSRAGR BKN020CB RMK QFE734/0979

Decode

TAF

TAF URMM 210759Z 2109/2209 28003G08MPS 9999 SCT030 TX26/2112Z TN14/2202Z TEMPO 2109/2118 30005G12MPS 3100 -SHRA BKN011 BKN030CB TEMPO 2118/2206 3100 -SHRA BR BKN011 BKN030CB

Decode

Destination Runways

ID Width Length Bearing (true) Bearing (mag) Surface Threshold Offset Overrun Length
12 197 ft / 60 m 12,766 ft / 3,891 m 122.28° 114.86° Concrete 0 ft / 0 m 240 ft / 73 m
30 197 ft / 60 m 12,766 ft / 3,891 m 302.31° 294.89° Concrete 0 ft / 0 m 250 ft / 76 m

Popular Alternatives